This demonstration page uses our WeatherBlox Daily Observations layout. Learn more.

Left ArrowRight Arrow

39.92423, -83.80882

Hourly Observations for November 9, 2020

Temp ( °F °C ) Dew Point ( °F °C ) Humidity (%) Winds ( mph kmh ) Pressure ( in mb ) Visibility ( mi km ) Precip ( " mm )
12:56 am 00:56 Clear 49 9.4 47 8.3 93 93 E 5 7 30.26 1025 10 16 N/A
1:56 am 01:56 Clear 47 8.3 47 8.3 100 100 E 5 7 30.25 1024 10 16 N/A
2:56 am 02:56 Clear 48 8.9 47 8.3 96 96 ESE 6 9 30.26 1025 10 16 N/A
3:56 am 03:56 Clear 48 8.9 47 8.3 96 96 SE 7 11 30.25 1025 10 16 N/A
4:56 am 04:56 Clear 49 9.4 46 7.8 90 90 N N/A 30.25 1025 10 16 N/A
5:56 am 05:56 Clear 53 11.7 49 9.4 86 86 SSE 6 9 30.27 1025 10 16 N/A
6:56 am 06:56 Clear 50 10 48 8.9 93 93 SE 3 6 30.29 1026 10 16 N/A
7:56 am 07:56 Sunny 49 9.4 48 8.9 97 97 SE 3 6 30.30 1026 10 16 N/A
8:56 am 08:56 Sunny 59 15 52 11.1 78 78 SSE 6 9 30.30 1026 10 16 N/A
9:56 am 09:56 Sunny 67 19.4 55 12.8 66 66 S 8 13 30.28 1026 10 16 N/A
10:56 am 10:56 Sunny 71 21.7 56 13.3 59 59 S 8 13 30.27 1025 10 16 N/A
11:56 am 11:56 Sunny 74 23.3 56 13.3 54 54 WSW 7 11 30.24 1024 10 16 N/A
12:56 pm 12:56 Sunny 76 24.4 56 13.3 50 50 S 6 9 30.21 1023 10 16 N/A
1:56 pm 13:56 Sunny 77 25 56 13.3 48 48 S 7 11 30.18 1022 10 16 N/A
2:56 pm 14:56 Sunny 77 25 56 13.3 48 48 S 7 11 30.15 1021 10 16 N/A
3:56 pm 15:56 Sunny 76 24.4 56 13.3 50 50 SSE 8 13 30.15 1021 10 16 N/A
4:56 pm 16:56 Sunny 73 22.8 55 12.8 53 53 SSE 6 9 30.14 1021 10 16 N/A
5:56 pm 17:56 Clear 67 19.4 55 12.8 66 66 SSE 5 7 30.15 1021 10 16 N/A
6:56 pm 18:56 Clear 67 19.4 55 12.8 66 66 SSE 6 9 30.15 1021 10 16 N/A
7:56 pm 19:56 Clear 60 15.6 53 11.7 78 78 SE 8 13 30.15 1021 10 16 N/A
8:56 pm 20:56 Clear 62 16.7 54 12.2 75 75 SSE 8 13 30.14 1021 10 16 N/A
9:56 pm 21:56 Clear 62 16.7 53 11.7 73 73 SSE 7 11 30.12 1020 10 16 N/A
10:56 pm 22:56 Clear 62 16.7 53 11.7 73 73 S 7 11 30.11 1020 10 16 N/A
11:56 pm 23:56 Clear 62 16.7 53 11.7 73 73 SSE 7 11 30.10 1019 10 16 N/A

Powered by AerisWeather